Time,TemperatureF,DewpointF,PressureIn,WindDirection,WindDirectionDegrees,WindSpeedMPH,WindSpeedGustMPH,Humidity,HourlyPrecipIn,Conditions,Clouds,dailyrainin,SoftwareType,DateUTC
2013-06-24 00:01:00,68.0,59.0,0.00,SSE,157,0.0,0.0,73,0.00,,---,0.00,VWS V14.01,2013-06-24 04:01:00,
2013-06-24 00:06:00,67.8,59.2,0.00,SSE,157,0.0,0.0,74,0.00,,---,0.00,VWS V14.01,2013-06-24 04:06:00,
2013-06-24 00:11:00,67.6,59.1,0.00,SSE,157,0.0,0.0,74,0.00,,---,0.00,VWS V14.01,2013-06-24 04:11:00,
2013-06-24 00:16:00,67.5,58.9,0.00,SSE,157,0.0,0.0,74,0.00,,---,0.00,VWS V14.01,2013-06-24 04:16:00,
2013-06-24 00:21:00,67.5,58.9,0.00,SSE,157,0.0,0.0,74,0.00,,---,0.00,VWS V14.01,2013-06-24 04:21:00,
2013-06-24 00:26:00,67.3,58.7,0.00,SSE,157,0.0,0.0,74,0.00,,---,0.00,VWS V14.01,2013-06-24 04:26:00,
2013-06-24 00:31:00,67.5,59.3,0.00,SSE,157,0.0,0.0,75,0.00,,---,0.00,VWS V14.01,2013-06-24 04:31:00,
2013-06-24 00:36:00,67.5,59.6,0.00,SSE,157,0.0,0.0,76,0.00,,---,0.00,VWS V14.01,2013-06-24 04:36:00,
2013-06-24 00:41:00,67.5,59.6,0.00,SSE,157,0.0,0.0,76,0.00,,---,0.00,VWS V14.01,2013-06-24 04:41:00,
2013-06-24 00:46:00,67.6,59.8,0.00,SSE,157,0.0,0.0,76,0.00,,---,0.00,VWS V14.01,2013-06-24 04:46:00,
2013-06-24 00:51:00,67.6,59.8,0.00,South,177,0.0,0.0,76,0.00,,---,0.00,VWS V14.01,2013-06-24 04:51:00,
2013-06-24 00:56:00,68.0,60.2,0.00,South,177,0.0,0.0,76,0.00,,---,0.00,VWS V14.01,2013-06-24 04:56:00,
2013-06-24 01:01:00,68.0,60.5,0.00,South,177,0.0,0.0,77,0.00,,---,0.00,VWS V14.01,2013-06-24 05:01:00,
2013-06-24 01:06:00,68.2,60.7,0.00,South,177,0.0,0.0,77,0.00,,---,0.00,VWS V14.01,2013-06-24 05:06:00,
2013-06-24 01:11:00,68.2,60.7,0.00,South,177,0.0,0.0,77,0.00,,---,0.00,VWS V14.01,2013-06-24 05:11:00,
2013-06-24 01:16:00,68.4,60.9,0.00,WSW,239,0.0,0.0,77,0.00,,---,0.00,VWS V14.01,2013-06-24 05:16:00,
2013-06-24 01:21:00,68.9,61.8,0.00,SE,127,0.0,0.0,78,0.00,,---,0.00,VWS V14.01,2013-06-24 05:21:00,
2013-06-24 01:26:00,69.1,62.3,0.00,SE,130,0.0,0.0,79,0.00,,---,0.00,VWS V14.01,2013-06-24 05:26:00,
2013-06-24 01:31:00,69.1,61.9,0.00,ESE,119,0.0,0.0,78,0.00,,---,0.00,VWS V14.01,2013-06-24 05:31:00,
2013-06-24 01:36:00,69.1,61.9,0.00,ESE,122,0.0,0.0,78,0.00,,---,0.00,VWS V14.01,2013-06-24 05:36:00,
2013-06-24 01:41:00,68.9,61.4,0.00,ESE,122,0.0,0.0,77,0.00,,---,0.00,VWS V14.01,2013-06-24 05:41:00,
2013-06-24 01:47:00,68.7,61.2,0.00,ESE,122,0.0,0.0,77,0.00,,---,0.00,VWS V14.01,2013-06-24 05:47:00,
2013-06-24 01:52:00,68.5,61.0,0.00,ESE,122,0.0,0.0,77,0.00,,---,0.00,VWS V14.01,2013-06-24 05:52:00,
2013-06-24 01:57:00,68.5,61.0,0.00,ESE,122,0.0,0.0,77,0.00,,---,0.00,VWS V14.01,2013-06-24 05:57:00,
2013-06-24 02:02:00,68.5,61.0,0.00,ESE,122,0.0,0.0,77,0.00,,---,0.00,VWS V14.01,2013-06-24 06:02:00,
2013-06-24 02:07:00,68.4,60.9,0.00,ESE,122,0.0,0.0,77,0.00,,---,0.00,VWS V14.01,2013-06-24 06:07:00,
2013-06-24 02:12:00,68.4,61.2,0.00,SE,146,4.0,4.0,78,0.00,,---,0.00,VWS V14.01,2013-06-24 06:12:00,
2013-06-24 02:17:00,68.7,61.6,0.00,SW,229,3.6,3.6,78,0.00,,---,0.00,VWS V14.01,2013-06-24 06:17:00,
2013-06-24 02:22:00,69.1,62.3,0.00,ESE,109,3.1,3.1,79,0.00,,---,0.00,VWS V14.01,2013-06-24 06:22:00,
2013-06-24 02:27:00,69.6,62.8,0.00,WSW,237,0.0,6.3,79,0.00,,---,0.00,VWS V14.01,2013-06-24 06:27:00,
2013-06-24 02:32:00,70.0,62.8,0.00,South,184,3.6,3.6,78,0.00,,---,0.00,VWS V14.01,2013-06-24 06:32:00,
2013-06-24 02:37:00,70.2,62.6,0.00,SE,142,4.0,4.0,77,0.00,,---,0.00,VWS V14.01,2013-06-24 06:37:00,
2013-06-24 02:42:00,70.2,61.9,0.00,WNW,299,2.2,2.2,75,0.00,,---,0.00,VWS V14.01,2013-06-24 06:42:00,
2013-06-24 02:48:00,70.2,61.5,0.00,West,279,4.0,4.0,74,0.00,,---,0.00,VWS V14.01,2013-06-24 06:48:00,
2013-06-24 02:53:00,70.3,60.5,0.00,SW,216,2.7,2.7,71,0.00,,---,0.00,VWS V14.01,2013-06-24 06:53:00,
2013-06-24 02:58:00,70.3,60.1,0.00,SE,131,2.7,2.7,70,0.00,,---,0.00,VWS V14.01,2013-06-24 06:58:00,
2013-06-24 03:03:00,70.2,59.9,0.00,SE,145,0.0,0.0,70,0.00,,---,0.00,VWS V14.01,2013-06-24 07:03:00,
2013-06-24 03:08:00,70.0,59.3,0.00,SSW,203,0.0,0.0,69,0.00,,---,0.00,VWS V14.01,2013-06-24 07:08:00,
2013-06-24 03:13:00,69.8,59.2,0.00,ESE,119,3.6,3.6,69,0.00,,---,0.00,VWS V14.01,2013-06-24 07:13:00,
2013-06-24 03:18:00,69.8,59.2,0.00,SSE,159,0.0,0.0,69,0.00,,---,0.00,VWS V14.01,2013-06-24 07:18:00,
2013-06-24 03:23:00,69.8,59.2,0.00,WNW,294,0.0,0.0,69,0.00,,---,0.00,VWS V14.01,2013-06-24 07:23:00,
2013-06-24 03:28:00,69.8,58.8,0.00,SSW,208,3.1,3.1,68,0.00,,---,0.00,VWS V14.01,2013-06-24 07:28:00,
2013-06-24 03:33:00,69.8,59.2,0.00,WSW,238,0.0,0.0,69,0.00,,---,0.00,VWS V14.01,2013-06-24 07:33:00,
2013-06-24 03:38:00,69.8,58.8,0.00,WSW,238,0.0,0.0,68,0.00,,---,0.00,VWS V14.01,2013-06-24 07:38:00,
2013-06-24 03:43:00,69.6,59.0,0.00,WSW,254,0.0,0.0,69,0.00,,---,0.00,VWS V14.01,2013-06-24 07:43:00,
2013-06-24 03:48:00,69.6,59.0,0.00,SE,128,0.0,0.0,69,0.00,,---,0.00,VWS V14.01,2013-06-24 07:48:00,
2013-06-24 03:53:00,69.6,59.0,0.00,ESE,109,0.0,0.0,69,0.00,,---,0.00,VWS V14.01,2013-06-24 07:53:00,
2013-06-24 03:58:00,69.6,59.0,0.00,SSW,199,0.0,0.0,69,0.00,,---,0.00,VWS V14.01,2013-06-24 07:58:00,
2013-06-24 04:04:00,69.8,59.2,0.00,NW,304,0.0,0.0,69,0.00,,---,0.00,VWS V14.01,2013-06-24 08:04:00,
2013-06-24 04:09:00,70.0,59.0,0.00,WNW,297,4.0,4.0,68,0.00,,---,0.00,VWS V14.01,2013-06-24 08:09:00,
2013-06-24 04:14:00,70.0,59.0,0.00,WSW,252,2.7,2.7,68,0.00,,---,0.00,VWS V14.01,2013-06-24 08:14:00,
2013-06-24 04:19:00,70.2,59.1,0.00,East,93,0.0,0.0,68,0.00,,---,0.00,VWS V14.01,2013-06-24 08:19:00,
2013-06-24 04:24:00,70.2,59.1,0.00,NNE,30,0.0,0.0,68,0.00,,---,0.00,VWS V14.01,2013-06-24 08:24:00,
2013-06-24 04:29:00,70.2,59.1,0.00,SW,217,0.0,0.0,68,0.00,,---,0.00,VWS V14.01,2013-06-24 08:29:00,
2013-06-24 04:34:00,70.2,58.7,0.00,SE,127,0.0,2.7,67,0.00,,---,0.00,VWS V14.01,2013-06-24 08:34:00,
2013-06-24 04:39:00,70.0,58.5,0.00,SE,124,3.6,3.6,67,0.00,,---,0.00,VWS V14.01,2013-06-24 08:39:00,
2013-06-24 04:44:00,70.0,59.0,0.00,SE,145,4.0,4.0,68,0.00,,---,0.00,VWS V14.01,2013-06-24 08:44:00,
2013-06-24 04:49:00,70.0,58.5,0.00,South,170,0.0,0.0,67,0.00,,---,0.00,VWS V14.01,2013-06-24 08:49:00,
2013-06-24 04:54:00,70.0,58.5,0.00,SSE,167,0.0,2.2,67,0.00,,---,0.00,VWS V14.01,2013-06-24 08:54:00,
2013-06-24 04:59:00,70.0,58.5,0.00,WSW,252,2.7,2.7,67,0.00,,---,0.00,VWS V14.01,2013-06-24 08:59:00,
2013-06-24 05:04:00,70.0,58.5,0.00,ESE,111,0.0,3.1,67,0.00,,---,0.00,VWS V14.01,2013-06-24 09:04:00,
2013-06-24 05:09:00,69.8,58.4,0.00,East,89,4.5,4.5,67,0.00,,---,0.00,VWS V14.01,2013-06-24 09:09:00,
2013-06-24 05:15:00,69.8,58.4,0.00,East,84,0.0,0.0,67,0.00,,---,0.00,VWS V14.01,2013-06-24 09:15:00,
2013-06-24 05:20:00,69.6,58.2,0.00,SSW,195,0.0,2.2,67,0.00,,---,0.00,VWS V14.01,2013-06-24 09:20:00,
2013-06-24 05:25:00,69.6,58.2,0.00,WSW,246,0.0,0.0,67,0.00,,---,0.00,VWS V14.01,2013-06-24 09:25:00,
2013-06-24 05:30:00,69.6,58.6,0.00,SE,133,0.0,0.0,68,0.00,,---,0.00,VWS V14.01,2013-06-24 09:30:00,
2013-06-24 05:35:00,69.8,58.8,0.00,ESE,113,0.0,0.0,68,0.00,,---,0.00,VWS V14.01,2013-06-24 09:35:00,
2013-06-24 05:40:00,69.6,58.6,0.00,ESE,107,0.0,3.1,68,0.00,,---,0.00,VWS V14.01,2013-06-24 09:40:00,
2013-06-24 05:45:00,69.4,58.4,0.00,NE,52,0.0,0.0,68,0.00,,---,0.00,VWS V14.01,2013-06-24 09:45:00,
2013-06-24 05:50:00,69.4,58.4,0.00,SE,143,4.0,4.0,68,0.00,,---,0.00,VWS V14.01,2013-06-24 09:50:00,
2013-06-24 05:55:00,69.4,58.4,0.00,South,171,0.0,2.2,68,0.00,,---,0.00,VWS V14.01,2013-06-24 09:55:00,
2013-06-24 06:00:00,69.3,58.3,0.00,SSW,197,0.0,0.0,68,0.00,,---,0.00,VWS V14.01,2013-06-24 10:00:00,
2013-06-24 06:05:00,69.1,58.5,0.00,ENE,73,0.0,0.0,69,0.00,,---,0.00,VWS V14.01,2013-06-24 10:05:00,
2013-06-24 06:11:00,69.1,58.5,0.00,East,98,0.0,0.0,69,0.00,,---,0.00,VWS V14.01,2013-06-24 10:11:00,
2013-06-24 06:16:00,69.1,58.5,0.00,East,87,0.0,0.0,69,0.00,,---,0.00,VWS V14.01,2013-06-24 10:16:00,
2013-06-24 06:21:00,69.1,58.5,0.00,East,87,0.0,0.0,69,0.00,,---,0.00,VWS V14.01,2013-06-24 10:21:00,
2013-06-24 06:26:00,69.1,58.9,0.00,WNW,303,0.0,0.0,70,0.00,,---,0.00,VWS V14.01,2013-06-24 10:26:00,
2013-06-24 06:31:00,69.1,58.9,0.00,South,170,0.0,0.0,70,0.00,,---,0.00,VWS V14.01,2013-06-24 10:31:00,
2013-06-24 06:36:00,69.3,59.1,0.00,South,173,0.0,0.0,70,0.00,,---,0.00,VWS V14.01,2013-06-24 10:36:00,
2013-06-24 06:41:00,69.3,59.1,0.00,SW,231,0.0,0.0,70,0.00,,---,0.00,VWS V14.01,2013-06-24 10:41:00,
2013-06-24 06:46:00,69.3,59.5,0.00,West,280,0.0,0.0,71,0.00,,---,0.00,VWS V14.01,2013-06-24 10:46:00,
2013-06-24 06:51:00,69.4,59.6,0.00,West,280,0.0,0.0,71,0.00,,---,0.00,VWS V14.01,2013-06-24 10:51:00,
2013-06-24 06:56:00,69.4,59.6,0.00,WSW,238,0.0,0.0,71,0.00,,---,0.00,VWS V14.01,2013-06-24 10:56:00,
2013-06-24 07:01:00,69.4,59.6,0.00,ESE,118,0.0,0.0,71,0.00,,---,0.00,VWS V14.01,2013-06-24 11:01:00,
2013-06-24 07:06:00,69.6,59.8,0.00,South,172,0.0,0.0,71,0.00,,---,0.00,VWS V14.01,2013-06-24 11:06:00,
2013-06-24 07:12:00,69.8,60.0,0.00,South,191,0.0,0.0,71,0.00,,---,0.00,VWS V14.01,2013-06-24 11:12:00,
2013-06-24 07:17:00,69.8,60.0,0.00,East,101,0.0,0.0,71,0.00,,---,0.00,VWS V14.01,2013-06-24 11:17:00,
2013-06-24 07:22:00,69.8,60.0,0.00,East,90,0.0,0.0,71,0.00,,---,0.00,VWS V14.01,2013-06-24 11:22:00,
2013-06-24 07:27:00,70.0,60.2,0.00,West,260,0.0,0.0,71,0.00,,---,0.00,VWS V14.01,2013-06-24 11:27:00,
2013-06-24 07:32:00,70.3,60.5,0.00,NE,50,0.0,0.0,71,0.00,,---,0.00,VWS V14.01,2013-06-24 11:32:00,
2013-06-24 07:37:00,70.3,60.5,0.00,West,269,0.0,0.0,71,0.00,,---,0.00,VWS V14.01,2013-06-24 11:37:00,
2013-06-24 07:42:00,70.5,60.7,0.00,East,98,3.1,3.6,71,0.00,,---,0.00,VWS V14.01,2013-06-24 11:42:00,
2013-06-24 07:47:00,70.7,60.8,0.00,North,353,0.0,0.0,71,0.00,,---,0.00,VWS V14.01,2013-06-24 11:47:00,
2013-06-24 07:52:00,70.9,60.6,0.00,WNW,300,0.0,0.0,70,0.00,,---,0.00,VWS V14.01,2013-06-24 11:52:00,
2013-06-24 07:57:00,71.1,60.8,0.00,WSW,247,2.7,2.7,70,0.00,,---,0.00,VWS V14.01,2013-06-24 11:57:00,
2013-06-24 08:02:00,71.1,60.8,0.00,WNW,292,0.0,0.0,70,0.00,,---,0.00,VWS V14.01,2013-06-24 12:02:00,
2013-06-24 08:08:00,71.2,60.6,0.00,ENE,72,0.0,2.2,69,0.00,,---,0.00,VWS V14.01,2013-06-24 12:08:00,
2013-06-24 08:13:00,71.2,60.6,0.00,West,270,0.0,0.0,69,0.00,,---,0.00,VWS V14.01,2013-06-24 12:13:00,
2013-06-24 08:18:00,71.4,60.3,0.00,West,271,0.0,0.0,68,0.00,,---,0.00,VWS V14.01,2013-06-24 12:18:00,
2013-06-24 08:23:00,71.4,60.3,0.00,NW,310,0.0,0.0,68,0.00,,---,0.00,VWS V14.01,2013-06-24 12:23:00,
2013-06-24 08:28:00,71.4,60.3,0.00,WSW,246,2.2,2.2,68,0.00,,---,0.00,VWS V14.01,2013-06-24 12:28:00,
2013-06-24 08:33:00,71.6,60.1,0.00,SW,218,0.0,0.0,67,0.00,,---,0.00,VWS V14.01,2013-06-24 12:33:00,
2013-06-24 08:38:00,71.8,60.2,0.00,WSW,257,5.4,5.4,67,0.00,,---,0.00,VWS V14.01,2013-06-24 12:38:00,
2013-06-24 08:43:00,71.8,60.2,0.00,West,270,0.0,0.0,67,0.00,,---,0.00,VWS V14.01,2013-06-24 12:43:00,
2013-06-24 08:48:00,72.0,60.4,0.00,East,87,0.0,0.0,67,0.00,,---,0.00,VWS V14.01,2013-06-24 12:48:00,
2013-06-24 08:53:00,72.0,60.4,0.00,South,183,0.0,0.0,67,0.00,,---,0.00,VWS V14.01,2013-06-24 12:53:00,
2013-06-24 08:58:00,72.0,60.0,0.00,East,83,0.0,0.0,66,0.00,,---,0.00,VWS V14.01,2013-06-24 12:58:00,
2013-06-24 09:04:00,72.1,60.2,0.00,South,187,0.0,0.0,66,0.00,,---,0.00,VWS V14.01,2013-06-24 13:04:00,
2013-06-24 09:09:00,72.3,59.9,0.00,SSW,198,0.0,0.0,65,0.00,,---,0.00,VWS V14.01,2013-06-24 13:09:00,
2013-06-24 09:14:00,72.7,60.2,0.00,NNE,13,0.0,3.6,65,0.00,,---,0.00,VWS V14.01,2013-06-24 13:14:00,
2013-06-24 09:19:00,73.0,60.2,0.00,West,279,0.0,0.0,64,0.00,,---,0.00,VWS V14.01,2013-06-24 13:19:00,
2013-06-24 09:24:00,73.2,59.9,0.00,SSE,161,4.0,4.0,63,0.00,,---,0.00,VWS V14.01,2013-06-24 13:24:00,
2013-06-24 09:29:00,73.4,59.6,0.00,SW,231,0.0,0.0,62,0.00,,---,0.00,VWS V14.01,2013-06-24 13:29:00,
2013-06-24 09:34:00,73.8,59.0,0.00,East,95,2.7,2.7,60,0.00,,---,0.00,VWS V14.01,2013-06-24 13:34:00,
2013-06-24 09:39:00,73.9,59.2,0.00,SE,133,3.1,3.1,60,0.00,,---,0.00,VWS V14.01,2013-06-24 13:39:00,
2013-06-24 09:44:00,73.9,59.2,0.00,SE,133,0.0,0.0,60,0.00,,---,0.00,VWS V14.01,2013-06-24 13:44:00,
2013-06-24 09:49:00,74.3,59.1,0.00,SE,145,0.0,0.0,59,0.00,,---,0.00,VWS V14.01,2013-06-24 13:49:00,
2013-06-24 09:54:00,74.5,59.2,0.00,West,274,3.1,3.1,59,0.00,,---,0.00,VWS V14.01,2013-06-24 13:54:00,
2013-06-24 09:59:00,74.7,59.4,0.00,SSE,165,0.0,0.0,59,0.00,,---,0.00,VWS V14.01,2013-06-24 13:59:00,
2013-06-24 10:04:00,74.7,59.4,0.00,ESE,104,0.0,0.0,59,0.00,,---,0.00,VWS V14.01,2013-06-24 14:04:00,
2013-06-24 10:09:00,74.8,60.0,0.00,West,277,0.0,0.0,60,0.00,,---,0.00,VWS V14.01,2013-06-24 14:09:00,
2013-06-24 10:14:00,75.0,60.2,0.00,West,277,0.0,0.0,60,0.00,,---,0.00,VWS V14.01,2013-06-24 14:14:00,
2013-06-24 10:19:00,75.2,59.9,0.00,East,87,0.0,3.1,59,0.00,,---,0.00,VWS V14.01,2013-06-24 14:19:00,
2013-06-24 10:24:00,75.6,59.8,0.00,NW,319,2.2,2.2,58,0.00,,---,0.00,VWS V14.01,2013-06-24 14:24:00,
2013-06-24 10:29:00,75.6,58.8,0.00,WNW,284,0.0,0.0,56,0.00,,---,0.00,VWS V14.01,2013-06-24 14:29:00,
2013-06-24 10:34:00,75.9,60.1,0.00,West,278,2.2,2.2,58,0.00,,---,0.00,VWS V14.01,2013-06-24 14:34:00,
2013-06-24 10:39:00,75.9,59.6,0.00,South,174,0.0,0.0,57,0.00,,---,0.00,VWS V14.01,2013-06-24 14:39:00,
2013-06-24 10:44:00,75.9,59.6,0.00,ESE,112,3.6,3.6,57,0.00,,---,0.00,VWS V14.01,2013-06-24 14:44:00,
2013-06-24 10:49:00,76.3,60.4,0.00,SW,219,0.0,0.0,58,0.00,,---,0.00,VWS V14.01,2013-06-24 14:49:00,
2013-06-24 10:54:00,76.5,60.1,0.00,SE,144,2.2,2.2,57,0.00,,---,0.00,VWS V14.01,2013-06-24 14:54:00,
2013-06-24 10:59:00,76.5,60.1,0.00,NW,318,0.0,2.7,57,0.00,,---,0.00,VWS V14.01,2013-06-24 14:59:00,
2013-06-24 11:04:00,76.6,59.8,0.00,SSW,192,0.0,0.0,56,0.00,,---,0.00,VWS V14.01,2013-06-24 15:04:00,
2013-06-24 11:09:00,76.8,60.5,0.00,West,261,3.6,3.6,57,0.00,,---,0.00,VWS V14.01,2013-06-24 15:09:00,
2013-06-24 11:14:00,77.2,60.3,0.00,SSW,204,4.0,4.0,56,0.00,,---,0.00,VWS V14.01,2013-06-24 15:14:00,
2013-06-24 11:20:00,77.5,61.1,0.00,WSW,237,2.7,3.1,57,0.00,,---,0.00,VWS V14.01,2013-06-24 15:20:00,
2013-06-24 11:25:00,78.3,61.3,0.00,SSW,204,0.0,4.9,56,0.00,,---,0.00,VWS V14.01,2013-06-24 15:25:00,
2013-06-24 11:30:00,78.3,61.3,0.00,SW,236,3.1,4.0,56,0.00,,---,0.00,VWS V14.01,2013-06-24 15:30:00,
2013-06-24 11:35:00,79.2,60.0,0.00,West,272,4.5,4.5,52,0.00,,---,0.00,VWS V14.01,2013-06-24 15:35:00,
2013-06-24 11:40:00,79.2,59.5,0.00,WSW,244,5.4,5.8,51,0.00,,---,0.00,VWS V14.01,2013-06-24 15:40:00,
2013-06-24 11:45:00,79.2,58.4,0.00,South,170,3.6,3.6,49,0.00,,---,0.00,VWS V14.01,2013-06-24 15:45:00,
2013-06-24 11:50:00,79.2,58.4,0.00,NE,56,5.4,8.3,49,0.00,,---,0.00,VWS V14.01,2013-06-24 15:50:00,
2013-06-24 11:55:00,79.7,59.4,0.00,NE,45,2.2,2.2,50,0.00,,---,0.00,VWS V14.01,2013-06-24 15:55:00,
2013-06-24 12:00:00,79.5,58.1,0.00,SSE,160,2.7,2.7,48,0.00,,---,0.00,VWS V14.01,2013-06-24 16:00:00,
2013-06-24 12:05:00,79.5,58.7,0.00,West,272,3.1,3.1,49,0.00,,---,0.00,VWS V14.01,2013-06-24 16:05:00,
2013-06-24 12:11:00,79.3,58.0,0.00,South,182,3.1,3.1,48,0.00,,---,0.00,VWS V14.01,2013-06-24 16:11:00,
2013-06-24 12:16:00,79.0,58.2,0.00,ESE,115,2.7,4.0,49,0.00,,---,0.00,VWS V14.01,2013-06-24 16:16:00,
2013-06-24 12:21:00,78.3,58.1,0.00,East,99,2.7,2.7,50,0.00,,---,0.00,VWS V14.01,2013-06-24 16:21:00,
2013-06-24 12:26:00,78.3,58.1,0.00,SSE,151,0.0,0.0,50,0.00,,---,0.00,VWS V14.01,2013-06-24 16:26:00,
2013-06-24 12:31:00,76.6,58.2,0.00,East,101,0.0,0.0,53,0.00,,---,0.00,VWS V14.01,2013-06-24 16:31:00,
2013-06-24 12:36:00,75.9,59.1,0.00,East,101,0.0,0.0,56,0.00,,---,0.00,VWS V14.01,2013-06-24 16:36:00,
2013-06-24 12:41:00,75.7,60.9,0.00,East,101,0.0,0.0,60,0.00,,---,0.00,VWS V14.01,2013-06-24 16:41:00,
2013-06-24 12:46:00,75.9,62.0,0.00,East,101,0.0,0.0,62,0.00,,---,0.00,VWS V14.01,2013-06-24 16:46:00,
2013-06-24 12:51:00,76.5,63.4,0.00,NNW,336,0.0,0.0,64,0.00,,---,0.00,VWS V14.01,2013-06-24 16:51:00,
2013-06-24 12:56:00,76.3,63.7,0.00,SW,217,0.0,0.0,65,0.00,,---,0.00,VWS V14.01,2013-06-24 16:56:00,
2013-06-24 13:02:00,76.1,63.9,0.00,ESE,110,0.0,3.1,66,0.00,,---,0.00,VWS V14.01,2013-06-24 17:02:00,
2013-06-24 13:07:00,75.9,63.8,0.00,ESE,119,0.0,0.0,66,0.00,,---,0.00,VWS V14.01,2013-06-24 17:07:00,
2013-06-24 13:12:00,75.9,64.2,0.00,West,279,0.0,0.0,67,0.00,,---,0.00,VWS V14.01,2013-06-24 17:12:00,
2013-06-24 13:17:00,75.9,64.2,0.00,WNW,285,0.0,0.0,67,0.00,,---,0.00,VWS V14.01,2013-06-24 17:17:00,
2013-06-24 13:22:00,75.9,64.2,0.00,SW,220,2.7,2.7,67,0.00,,---,0.00,VWS V14.01,2013-06-24 17:22:00,
2013-06-24 13:27:00,75.7,64.0,0.00,East,90,0.0,0.0,67,0.00,,---,0.00,VWS V14.01,2013-06-24 17:27:00,
2013-06-24 13:32:00,75.7,63.6,0.00,ESE,116,0.0,0.0,66,0.00,,---,0.00,VWS V14.01,2013-06-24 17:32:00,
2013-06-24 13:37:00,75.6,63.4,0.00,SSE,157,0.0,0.0,66,0.00,,---,0.00,VWS V14.01,2013-06-24 17:37:00,
2013-06-24 13:42:00,75.6,63.4,0.00,SSE,157,0.0,0.0,66,0.00,,---,0.00,VWS V14.01,2013-06-24 17:42:00,
2013-06-24 13:47:00,75.6,63.4,0.00,SSE,157,0.0,0.0,66,0.00,,---,0.00,VWS V14.01,2013-06-24 17:47:00,
2013-06-24 13:53:00,75.7,64.4,0.00,ESE,111,0.0,0.0,68,0.04,,---,0.04,VWS V14.01,2013-06-24 17:53:00,
2013-06-24 13:58:00,75.9,64.6,0.00,ESE,111,0.0,0.0,68,0.04,,---,0.04,VWS V14.01,2013-06-24 17:58:00,
2013-06-24 14:03:00,75.9,64.6,0.00,ESE,111,0.0,0.0,68,0.04,,---,0.04,VWS V14.01,2013-06-24 18:03:00,
2013-06-24 14:08:00,75.9,64.6,0.00,ESE,111,0.0,0.0,68,0.04,,---,0.04,VWS V14.01,2013-06-24 18:08:00,
2013-06-24 14:13:00,75.9,65.0,0.00,ESE,111,0.0,0.0,69,0.04,,---,0.04,VWS V14.01,2013-06-24 18:13:00,
2013-06-24 14:18:00,75.9,65.0,0.00,ESE,111,0.0,0.0,69,0.04,,---,0.04,VWS V14.01,2013-06-24 18:18:00,
2013-06-24 14:23:00,75.9,65.4,0.00,ESE,111,0.0,0.0,70,0.04,,---,0.04,VWS V14.01,2013-06-24 18:23:00,
2013-06-24 14:28:00,75.9,65.4,0.00,SSW,210,4.9,4.9,70,0.04,,---,0.04,VWS V14.01,2013-06-24 18:28:00,
2013-06-24 14:33:00,73.8,59.5,0.00,ESE,122,4.0,4.0,61,0.04,,---,0.04,VWS V14.01,2013-06-24 18:33:00,
2013-06-24 14:38:00,72.0,56.9,0.00,SSE,162,7.6,7.6,59,0.04,,---,0.04,VWS V14.01,2013-06-24 18:38:00,
2013-06-24 14:43:00,70.0,55.5,0.00,SE,132,4.0,4.0,60,0.04,,---,0.04,VWS V14.01,2013-06-24 18:43:00,
2013-06-24 14:48:00,69.4,55.4,0.00,ESE,103,0.0,0.0,61,0.04,,---,0.04,VWS V14.01,2013-06-24 18:48:00,
2013-06-24 14:53:00,69.4,55.4,0.00,ESE,104,0.0,0.0,61,0.00,,---,0.04,VWS V14.01,2013-06-24 18:53:00,
2013-06-24 14:59:00,68.5,56.7,0.00,ESE,104,0.0,0.0,66,0.00,,---,0.04,VWS V14.01,2013-06-24 18:59:00,
2013-06-24 15:04:00,68.7,57.3,0.00,ESE,104,0.0,0.0,67,0.00,,---,0.04,VWS V14.01,2013-06-24 19:04:00,
2013-06-24 15:09:00,68.7,57.7,0.00,ESE,104,0.0,0.0,68,0.00,,---,0.04,VWS V14.01,2013-06-24 19:09:00,
2013-06-24 15:14:00,68.9,58.3,0.00,ESE,104,0.0,0.0,69,0.00,,---,0.04,VWS V14.01,2013-06-24 19:14:00,
2013-06-24 15:19:00,69.3,59.1,0.00,ESE,104,0.0,0.0,70,0.00,,---,0.04,VWS V14.01,2013-06-24 19:19:00,
2013-06-24 15:24:00,69.8,59.6,0.00,ESE,104,0.0,0.0,70,0.00,,---,0.04,VWS V14.01,2013-06-24 19:24:00,
2013-06-24 15:29:00,70.2,60.3,0.00,ESE,104,0.0,0.0,71,0.00,,---,0.04,VWS V14.01,2013-06-24 19:29:00,
2013-06-24 15:34:00,70.2,60.3,0.00,ESE,104,0.0,0.0,71,0.00,,---,0.04,VWS V14.01,2013-06-24 19:34:00,
2013-06-24 15:39:00,70.3,60.9,0.00,ESE,104,0.0,0.0,72,0.00,,---,0.04,VWS V14.01,2013-06-24 19:39:00,
2013-06-24 15:44:00,70.9,61.8,0.00,ESE,104,0.0,0.0,73,0.00,,---,0.04,VWS V14.01,2013-06-24 19:44:00,
2013-06-24 15:49:00,71.2,62.5,0.00,ESE,104,0.0,0.0,74,0.00,,---,0.04,VWS V14.01,2013-06-24 19:49:00,
2013-06-24 15:54:00,71.6,62.9,0.00,ESE,104,0.0,0.0,74,0.00,,---,0.04,VWS V14.01,2013-06-24 19:54:00,
2013-06-24 15:59:00,72.1,63.8,0.00,ESE,104,0.0,0.0,75,0.00,,---,0.04,VWS V14.01,2013-06-24 19:59:00,
2013-06-24 16:04:00,72.1,63.8,0.00,ESE,104,0.0,0.0,75,0.00,,---,0.04,VWS V14.01,2013-06-24 20:04:00,
2013-06-24 16:09:00,73.0,65.0,0.00,ESE,104,0.0,0.0,76,0.00,,---,0.04,VWS V14.01,2013-06-24 20:09:00,
2013-06-24 16:14:00,73.2,65.2,0.00,ESE,104,0.0,0.0,76,0.00,,---,0.04,VWS V14.01,2013-06-24 20:14:00,
2013-06-24 16:19:00,73.2,65.2,0.00,ESE,104,0.0,0.0,76,0.00,,---,0.04,VWS V14.01,2013-06-24 20:19:00,
2013-06-24 16:24:00,73.2,65.6,0.00,ESE,104,0.0,0.0,77,0.00,,---,0.04,VWS V14.01,2013-06-24 20:24:00,
2013-06-24 16:29:00,73.2,65.6,0.00,ESE,104,0.0,0.0,77,0.20,,---,0.24,VWS V14.01,2013-06-24 20:29:00,
2013-06-24 16:34:00,73.6,65.9,0.00,ESE,104,0.0,0.0,77,0.20,,---,0.24,VWS V14.01,2013-06-24 20:34:00,
2013-06-24 16:39:00,73.6,65.9,0.00,ESE,104,0.0,0.0,77,0.20,,---,0.24,VWS V14.01,2013-06-24 20:39:00,
2013-06-24 16:44:00,73.9,66.7,0.00,ESE,104,0.0,0.0,78,0.20,,---,0.24,VWS V14.01,2013-06-24 20:44:00,
2013-06-24 16:49:00,73.9,66.7,0.00,ESE,104,0.0,0.0,78,0.20,,---,0.24,VWS V14.01,2013-06-24 20:49:00,
2013-06-24 16:54:00,74.8,67.9,0.00,ENE,71,0.0,0.0,79,0.20,,---,0.24,VWS V14.01,2013-06-24 20:54:00,
2013-06-24 16:59:00,75.0,68.1,0.00,NNE,33,0.0,0.0,79,0.20,,---,0.24,VWS V14.01,2013-06-24 20:59:00,
2013-06-24 17:04:00,75.6,69.0,0.00,NW,312,0.0,0.0,80,0.20,,---,0.24,VWS V14.01,2013-06-24 21:04:00,
2013-06-24 17:09:00,76.3,70.0,0.00,SW,233,0.0,0.0,81,0.20,,---,0.24,VWS V14.01,2013-06-24 21:09:00,
2013-06-24 17:14:00,76.5,70.2,0.00,ESE,108,4.0,4.0,81,0.20,,---,0.24,VWS V14.01,2013-06-24 21:14:00,
2013-06-24 17:19:00,76.8,70.2,0.00,SSE,165,2.2,2.7,80,0.20,,---,0.24,VWS V14.01,2013-06-24 21:19:00,
2013-06-24 17:25:00,76.8,70.2,0.00,SE,133,3.1,4.0,80,0.20,,---,0.24,VWS V14.01,2013-06-24 21:25:00,
2013-06-24 17:30:00,76.8,69.4,0.00,East,89,0.0,3.1,78,0.00,,---,0.24,VWS V14.01,2013-06-24 21:30:00,
2013-06-24 17:35:00,76.8,68.7,0.00,NE,38,0.0,0.0,76,0.00,,---,0.24,VWS V14.01,2013-06-24 21:35:00,
2013-06-24 17:40:00,76.8,68.7,0.00,SSE,165,5.8,5.8,76,0.00,,---,0.24,VWS V14.01,2013-06-24 21:40:00,
2013-06-24 17:45:00,76.8,67.1,0.00,ESE,112,0.0,0.0,72,0.00,,---,0.24,VWS V14.01,2013-06-24 21:45:00,
2013-06-24 17:50:00,76.8,65.9,0.00,North,353,2.7,3.6,69,0.00,,---,0.24,VWS V14.01,2013-06-24 21:50:00,
2013-06-24 17:55:00,77.0,65.6,0.00,ESE,122,0.0,0.0,68,0.00,,---,0.24,VWS V14.01,2013-06-24 21:55:00,
2013-06-24 18:00:00,77.0,65.6,0.00,SE,131,0.0,0.0,68,0.00,,---,0.24,VWS V14.01,2013-06-24 22:00:00,
2013-06-24 18:05:00,76.6,64.9,0.00,SE,141,3.6,3.6,67,0.00,,---,0.24,VWS V14.01,2013-06-24 22:05:00,
2013-06-24 18:10:00,76.3,64.5,0.00,South,169,0.0,3.6,67,0.00,,---,0.24,VWS V14.01,2013-06-24 22:10:00,
2013-06-24 18:15:00,76.3,64.5,0.00,WSW,237,0.0,0.0,67,0.00,,---,0.24,VWS V14.01,2013-06-24 22:15:00,
2013-06-24 18:20:00,76.3,64.5,0.00,East,79,0.0,3.1,67,0.00,,---,0.24,VWS V14.01,2013-06-24 22:20:00,
2013-06-24 18:25:00,75.9,63.8,0.00,SE,143,0.0,0.0,66,0.00,,---,0.24,VWS V14.01,2013-06-24 22:25:00,
2013-06-24 18:30:00,75.9,63.8,0.00,SSW,193,3.1,3.1,66,0.00,,---,0.24,VWS V14.01,2013-06-24 22:30:00,
2013-06-24 18:35:00,75.9,63.3,0.00,SSE,151,4.0,4.0,65,0.00,,---,0.24,VWS V14.01,2013-06-24 22:35:00,
2013-06-24 18:40:00,75.7,63.2,0.00,SE,140,0.0,2.7,65,0.00,,---,0.24,VWS V14.01,2013-06-24 22:40:00,
2013-06-24 18:45:00,75.7,62.7,0.00,SE,140,0.0,0.0,64,0.00,,---,0.24,VWS V14.01,2013-06-24 22:45:00,
2013-06-24 18:50:00,75.6,63.0,0.00,SE,140,0.0,0.0,65,0.00,,---,0.24,VWS V14.01,2013-06-24 22:50:00,
2013-06-24 18:55:00,75.4,63.2,0.00,SE,140,0.0,0.0,66,0.00,,---,0.24,VWS V14.01,2013-06-24 22:55:00,
2013-06-24 19:00:00,75.4,63.2,0.00,SE,140,0.0,0.0,66,0.00,,---,0.24,VWS V14.01,2013-06-24 23:00:00,
2013-06-24 19:05:00,74.8,63.6,0.00,SE,140,0.0,0.0,68,0.00,,---,0.24,VWS V14.01,2013-06-24 23:05:00,
2013-06-24 19:11:00,74.8,64.0,0.00,ENE,60,0.0,0.0,69,0.00,,---,0.24,VWS V14.01,2013-06-24 23:11:00,
2013-06-24 19:15:00,74.7,64.2,0.00,SSE,156,0.0,0.0,70,0.00,,---,0.24,VWS V14.01,2013-06-24 23:15:00,
2013-06-24 19:20:00,74.7,64.2,0.00,SSE,160,0.0,0.0,70,0.00,,---,0.24,VWS V14.01,2013-06-24 23:20:00,
2013-06-24 19:26:00,74.5,64.1,0.00,NNE,20,2.2,2.2,70,0.00,,---,0.24,VWS V14.01,2013-06-24 23:26:00,
2013-06-24 19:31:00,74.5,64.1,0.00,ESE,118,0.0,0.0,70,0.00,,---,0.24,VWS V14.01,2013-06-24 23:31:00,
2013-06-24 19:36:00,74.3,63.1,0.00,WSW,245,0.0,2.2,68,0.00,,---,0.24,VWS V14.01,2013-06-24 23:36:00,
2013-06-24 19:41:00,74.1,62.5,0.00,ESE,118,0.0,0.0,67,0.00,,---,0.24,VWS V14.01,2013-06-24 23:41:00,
2013-06-24 19:46:00,74.1,62.5,0.00,SW,220,0.0,0.0,67,0.00,,---,0.24,VWS V14.01,2013-06-24 23:46:00,
2013-06-24 19:51:00,74.1,62.5,0.00,SW,230,0.0,3.1,67,0.00,,---,0.24,VWS V14.01,2013-06-24 23:51:00,
2013-06-24 19:56:00,74.1,62.5,0.00,SW,230,0.0,0.0,67,0.00,,---,0.24,VWS V14.01,2013-06-24 23:56:00,
2013-06-24 20:01:00,73.6,61.5,0.00,SW,230,0.0,0.0,66,0.00,,---,0.24,VWS V14.01,2013-06-25 00:01:00,
2013-06-24 20:06:00,73.2,61.6,0.00,SW,230,0.0,0.0,67,0.00,,---,0.24,VWS V14.01,2013-06-25 00:06:00,
2013-06-24 20:11:00,72.9,61.3,0.00,SW,230,0.0,0.0,67,0.00,,---,0.24,VWS V14.01,2013-06-25 00:11:00,
2013-06-24 20:16:00,72.9,61.3,0.00,SW,230,0.0,0.0,67,0.00,,---,0.24,VWS V14.01,2013-06-25 00:16:00,
2013-06-24 20:21:00,72.5,61.3,0.00,SW,230,0.0,0.0,68,0.00,,---,0.24,VWS V14.01,2013-06-25 00:21:00,
2013-06-24 20:26:00,72.3,61.6,0.00,SW,230,0.0,0.0,69,0.00,,---,0.24,VWS V14.01,2013-06-25 00:26:00,
2013-06-24 20:31:00,72.1,61.4,0.00,SW,230,0.0,0.0,69,0.00,,---,0.24,VWS V14.01,2013-06-25 00:31:00,
2013-06-24 20:36:00,72.0,61.7,0.00,SW,230,0.0,0.0,70,0.00,,---,0.24,VWS V14.01,2013-06-25 00:36:00,
2013-06-24 20:41:00,71.8,61.5,0.00,SW,230,0.0,0.0,70,0.00,,---,0.24,VWS V14.01,2013-06-25 00:41:00,
2013-06-24 20:46:00,71.8,61.9,0.00,SE,143,3.6,3.6,71,0.00,,---,0.24,VWS V14.01,2013-06-25 00:46:00,
2013-06-24 20:51:00,71.6,61.7,0.00,NW,315,0.0,0.0,71,0.00,,---,0.24,VWS V14.01,2013-06-25 00:51:00,
2013-06-24 20:56:00,71.6,62.1,0.00,ENE,75,0.0,0.0,72,0.00,,---,0.24,VWS V14.01,2013-06-25 00:56:00,
2013-06-24 21:01:00,71.6,62.1,0.00,East,89,0.0,0.0,72,0.00,,---,0.24,VWS V14.01,2013-06-25 01:01:00,
2013-06-24 21:06:00,71.1,61.6,0.00,East,101,0.0,0.0,72,0.00,,---,0.24,VWS V14.01,2013-06-25 01:06:00,
2013-06-24 21:11:00,70.9,61.4,0.00,East,101,0.0,0.0,72,0.00,,---,0.24,VWS V14.01,2013-06-25 01:11:00,
2013-06-24 21:16:00,70.7,61.2,0.00,East,101,0.0,0.0,72,0.00,,---,0.24,VWS V14.01,2013-06-25 01:16:00,
2013-06-24 21:22:00,70.5,61.1,0.00,NW,309,0.0,0.0,72,0.00,,---,0.24,VWS V14.01,2013-06-25 01:22:00,
2013-06-24 21:27:00,70.5,61.1,0.00,NE,39,0.0,0.0,72,0.00,,---,0.24,VWS V14.01,2013-06-25 01:27:00,
2013-06-24 21:32:00,70.3,60.9,0.00,NNW,334,2.7,2.7,72,0.00,,---,0.24,VWS V14.01,2013-06-25 01:32:00,
2013-06-24 21:37:00,70.3,60.9,0.00,NNW,336,0.0,0.0,72,0.00,,---,0.24,VWS V14.01,2013-06-25 01:37:00,
2013-06-24 21:42:00,70.0,60.2,0.00,NNW,336,0.0,0.0,71,0.00,,---,0.24,VWS V14.01,2013-06-25 01:42:00,
2013-06-24 21:47:00,69.6,59.8,0.00,NNW,336,0.0,0.0,71,0.00,,---,0.24,VWS V14.01,2013-06-25 01:47:00,
2013-06-24 21:52:00,69.4,59.6,0.00,NNW,336,0.0,0.0,71,0.00,,---,0.24,VWS V14.01,2013-06-25 01:52:00,
2013-06-24 21:57:00,69.4,59.6,0.00,NNW,336,0.0,0.0,71,0.00,,---,0.24,VWS V14.01,2013-06-25 01:57:00,
2013-06-24 22:02:00,68.9,59.1,0.00,NNW,336,0.0,0.0,71,0.00,,---,0.24,VWS V14.01,2013-06-25 02:02:00,
2013-06-24 22:08:00,68.7,59.3,0.00,NNW,336,0.0,0.0,72,0.00,,---,0.24,VWS V14.01,2013-06-25 02:08:00,
2013-06-24 22:13:00,68.7,59.3,0.00,NNW,336,0.0,0.0,72,0.00,,---,0.24,VWS V14.01,2013-06-25 02:13:00,
2013-06-24 22:18:00,68.7,59.3,0.00,NNW,344,0.0,0.0,72,0.00,,---,0.24,VWS V14.01,2013-06-25 02:18:00,
2013-06-24 22:23:00,68.5,59.2,0.00,NNW,344,0.0,0.0,72,0.00,,---,0.24,VWS V14.01,2013-06-25 02:23:00,
2013-06-24 22:28:00,68.5,59.5,0.00,NNW,344,0.0,0.0,73,0.00,,---,0.24,VWS V14.01,2013-06-25 02:28:00,
2013-06-24 22:33:00,68.5,59.5,0.00,NNW,344,0.0,0.0,73,0.00,,---,0.24,VWS V14.01,2013-06-25 02:33:00,
2013-06-24 22:38:00,68.5,59.5,0.00,WNW,299,0.0,0.0,73,0.00,,---,0.24,VWS V14.01,2013-06-25 02:38:00,
2013-06-24 22:43:00,68.5,59.5,0.00,WNW,299,0.0,0.0,73,0.00,,---,0.24,VWS V14.01,2013-06-25 02:43:00,
2013-06-24 22:48:00,68.4,59.4,0.00,WNW,299,0.0,0.0,73,0.00,,---,0.24,VWS V14.01,2013-06-25 02:48:00,
2013-06-24 22:54:00,68.4,59.8,0.00,WNW,299,0.0,0.0,74,0.00,,---,0.24,VWS V14.01,2013-06-25 02:54:00,
2013-06-24 22:59:00,68.4,59.8,0.00,WNW,299,0.0,0.0,74,0.00,,---,0.24,VWS V14.01,2013-06-25 02:59:00,
2013-06-24 23:04:00,68.2,59.6,0.00,WNW,299,0.0,0.0,74,0.00,,---,0.24,VWS V14.01,2013-06-25 03:04:00,
2013-06-24 23:09:00,68.2,59.6,0.00,WNW,299,0.0,0.0,74,0.00,,---,0.24,VWS V14.01,2013-06-25 03:09:00,
2013-06-24 23:14:00,68.0,59.4,0.00,WNW,299,0.0,0.0,74,0.00,,---,0.24,VWS V14.01,2013-06-25 03:14:00,
2013-06-24 23:19:00,68.0,59.8,0.00,WNW,299,0.0,0.0,75,0.00,,---,0.24,VWS V14.01,2013-06-25 03:19:00,
2013-06-24 23:24:00,68.0,59.8,0.00,WNW,299,0.0,0.0,75,0.00,,---,0.24,VWS V14.01,2013-06-25 03:24:00,
2013-06-24 23:29:00,67.8,59.6,0.00,WNW,299,0.0,0.0,75,0.00,,---,0.24,VWS V14.01,2013-06-25 03:29:00,
2013-06-24 23:35:00,67.8,59.6,0.00,WNW,299,0.0,0.0,75,0.00,,---,0.24,VWS V14.01,2013-06-25 03:35:00,
2013-06-24 23:40:00,67.6,59.8,0.00,WNW,299,0.0,0.0,76,0.00,,---,0.24,VWS V14.01,2013-06-25 03:40:00,
2013-06-24 23:45:00,67.6,59.8,0.00,WNW,299,0.0,0.0,76,0.00,,---,0.24,VWS V14.01,2013-06-25 03:45:00,
2013-06-24 23:50:00,67.6,59.8,0.00,WNW,299,0.0,0.0,76,0.00,,---,0.24,VWS V14.01,2013-06-25 03:50:00,
2013-06-24 23:55:00,67.6,59.8,0.00,WNW,299,0.0,0.0,76,0.00,,---,0.00,VWS V14.01,2013-06-25 03:55:00,